#datetime,building,power
2022-05-14T00:00:00,pth,2.40
2022-05-14T00:02:00,pth,2.40
2022-05-14T00:03:00,pth,1.20
2022-05-14T00:05:00,pth,2.40
2022-05-14T00:07:00,pth,2.40
2022-05-14T00:08:00,pth,2.40
2022-05-14T00:10:00,pth,2.40
2022-05-14T00:12:00,pth,2.40
2022-05-14T00:14:00,pth,3.60
2022-05-14T00:15:00,pth,1.20
2022-05-14T00:17:00,pth,2.40
2022-05-14T00:18:00,pth,1.20
2022-05-14T00:20:00,pth,3.60
2022-05-14T00:22:00,pth,2.40
2022-05-14T00:24:00,pth,3.60
2022-05-14T00:25:00,pth,1.20
2022-05-14T00:26:00,pth,1.20
2022-05-14T00:28:00,pth,2.40
2022-05-14T00:30:00,pth,3.60
2022-05-14T00:31:00,pth,3.60
2022-05-14T00:32:00,pth,2.40
2022-05-14T00:33:00,pth,1.20
2022-05-14T00:35:00,pth,2.40
2022-05-14T00:37:00,pth,2.40
2022-05-14T00:39:00,pth,3.60
2022-05-14T00:40:00,pth,1.20
2022-05-14T00:41:00,pth,1.20
2022-05-14T00:43:00,pth,3.60
2022-05-14T00:45:00,pth,2.40
2022-05-14T00:47:00,pth,3.60
2022-05-14T00:48:00,pth,1.20
2022-05-14T00:50:00,pth,3.60
2022-05-14T00:52:00,pth,2.40
2022-05-14T00:54:00,pth,2.40
2022-05-14T00:56:00,pth,3.60
2022-05-14T00:57:00,pth,1.20
2022-05-14T00:58:00,pth,1.20
2022-05-14T01:00:00,pth,3.60
2022-05-14T01:01:00,pth,1.20
2022-05-14T01:03:00,pth,2.40
2022-05-14T01:05:00,pth,3.60
2022-05-14T01:06:00,pth,1.20
2022-05-14T01:08:00,pth,2.40
2022-05-14T01:09:00,pth,2.40
2022-05-14T01:11:00,pth,2.40
2022-05-14T01:13:00,pth,8.40
2022-05-14T01:14:00,pth,3.60
2022-05-14T01:16:00,pth,3.60
2022-05-14T01:18:00,pth,3.60
2022-05-14T01:20:00,pth,2.40
2022-05-14T01:22:00,pth,3.60
2022-05-14T01:23:00,pth,1.20
2022-05-14T01:25:00,pth,3.60
2022-05-14T01:27:00,pth,2.40
2022-05-14T01:29:00,pth,3.60
2022-05-14T01:30:00,pth,1.20
2022-05-14T01:32:00,pth,2.40
2022-05-14T01:33:00,pth,1.20
2022-05-14T01:35:00,pth,2.40
2022-05-14T01:37:00,pth,2.40
2022-05-14T01:39:00,pth,2.40
2022-05-14T01:41:00,pth,2.40
2022-05-14T01:43:00,pth,2.40
2022-05-14T01:45:00,pth,2.40
2022-05-14T01:47:00,pth,2.40
2022-05-14T01:48:00,pth,1.20
2022-05-14T01:50:00,pth,2.40
2022-05-14T01:52:00,pth,1.20
2022-05-14T01:53:00,pth,1.20
2022-05-14T01:55:00,pth,2.40
2022-05-14T01:57:00,pth,2.40
2022-05-14T01:59:00,pth,2.40
2022-05-14T02:01:00,pth,2.40
2022-05-14T02:02:00,pth,1.20
2022-05-14T02:03:00,pth,1.20
2022-05-14T02:05:00,pth,2.40
2022-05-14T02:07:00,pth,2.40
2022-05-14T02:09:00,pth,2.40
2022-05-14T02:10:00,pth,1.20
2022-05-14T02:11:00,pth,1.20
2022-05-14T02:13:00,pth,2.40
2022-05-14T02:15:00,pth,2.40
2022-05-14T02:17:00,pth,3.60
2022-05-14T02:19:00,pth,2.40
2022-05-14T02:20:00,pth,1.20
2022-05-14T02:22:00,pth,2.40
2022-05-14T02:23:00,pth,1.20
2022-05-14T02:25:00,pth,2.40
2022-05-14T02:27:00,pth,2.40
2022-05-14T02:29:00,pth,2.40
2022-05-14T02:30:00,pth,1.20
2022-05-14T02:32:00,pth,2.40
2022-05-14T02:34:00,pth,2.40
2022-05-14T02:36:00,pth,2.40
2022-05-14T02:38:00,pth,2.40
2022-05-14T02:40:00,pth,2.40
2022-05-14T02:41:00,pth,1.20
2022-05-14T02:43:00,pth,2.40
2022-05-14T02:45:00,pth,2.40
2022-05-14T02:47:00,pth,2.40
2022-05-14T02:48:00,pth,1.20
2022-05-14T02:50:00,pth,2.40
2022-05-14T02:51:00,pth,1.20
2022-05-14T02:53:00,pth,1.20
2022-05-14T02:55:00,pth,3.60
2022-05-14T02:57:00,pth,2.40
2022-05-14T02:59:00,pth,2.40
2022-05-14T03:00:00,pth,1.20
2022-05-14T03:02:00,pth,2.40
2022-05-14T03:04:00,pth,2.40
2022-05-14T03:06:00,pth,2.40
2022-05-14T03:07:00,pth,1.20
2022-05-14T03:09:00,pth,3.60
2022-05-14T03:10:00,pth,1.20
2022-05-14T03:11:00,pth,1.20
2022-05-14T03:13:00,pth,2.40
2022-05-14T03:15:00,pth,2.40
2022-05-14T03:17:00,pth,3.60
2022-05-14T03:19:00,pth,2.40
2022-05-14T03:21:00,pth,2.40
2022-05-14T03:23:00,pth,2.40
2022-05-14T03:25:00,pth,2.40
2022-05-14T03:27:00,pth,2.40
2022-05-14T03:28:00,pth,1.20
2022-05-14T03:30:00,pth,2.40
2022-05-14T03:32:00,pth,2.40
2022-05-14T03:34:00,pth,2.40
2022-05-14T03:35:00,pth,1.20
2022-05-14T03:36:00,pth,1.20
2022-05-14T03:38:00,pth,3.60
2022-05-14T03:40:00,pth,2.40
2022-05-14T03:41:00,pth,1.20
2022-05-14T03:43:00,pth,2.40
2022-05-14T03:44:00,pth,1.20
2022-05-14T03:45:00,pth,1.20
2022-05-14T03:47:00,pth,2.40
2022-05-14T03:48:00,pth,1.20
2022-05-14T03:50:00,pth,2.40
2022-05-14T03:52:00,pth,2.40
2022-05-14T03:53:00,pth,1.20
2022-05-14T03:55:00,pth,2.40
2022-05-14T03:57:00,pth,2.40
2022-05-14T03:59:00,pth,1.20
2022-05-14T04:01:00,pth,2.40
2022-05-14T04:03:00,pth,2.40
2022-05-14T04:04:00,pth,1.20
2022-05-14T04:06:00,pth,2.40
2022-05-14T04:08:00,pth,1.20
2022-05-14T04:09:00,pth,1.20
2022-05-14T04:11:00,pth,2.40
2022-05-14T04:13:00,pth,2.40
2022-05-14T04:15:00,pth,2.40
2022-05-14T04:17:00,pth,2.40
2022-05-14T04:19:00,pth,2.40
2022-05-14T04:20:00,pth,1.20
2022-05-14T04:22:00,pth,2.40
2022-05-14T04:23:00,pth,1.20
2022-05-14T04:25:00,pth,2.40
2022-05-14T04:26:00,pth,1.20
2022-05-14T04:28:00,pth,2.40
2022-05-14T04:30:00,pth,2.40
2022-05-14T04:32:00,pth,2.40
2022-05-14T04:34:00,pth,2.40
2022-05-14T04:36:00,pth,2.40
2022-05-14T04:37:00,pth,1.20
2022-05-14T04:39:00,pth,2.40
2022-05-14T04:41:00,pth,3.60
2022-05-14T04:43:00,pth,2.40
2022-05-14T04:45:00,pth,2.40
2022-05-14T04:47:00,pth,2.40
2022-05-14T04:49:00,pth,2.40
2022-05-14T04:50:00,pth,1.20
2022-05-14T04:52:00,pth,2.40
2022-05-14T04:54:00,pth,2.40
2022-05-14T04:56:00,pth,2.40
2022-05-14T04:58:00,pth,3.60
2022-05-14T05:00:00,pth,2.40
2022-05-14T05:02:00,pth,2.40
2022-05-14T05:03:00,pth,1.20
2022-05-14T05:05:00,pth,2.40
2022-05-14T05:06:00,pth,1.20
2022-05-14T05:08:00,pth,2.40
2022-05-14T05:10:00,pth,2.40
2022-05-14T05:12:00,pth,2.40
2022-05-14T05:14:00,pth,2.40
2022-05-14T05:16:00,pth,2.40
2022-05-14T05:18:00,pth,2.40
2022-05-14T05:20:00,pth,1.20
2022-05-14T05:22:00,pth,2.40
2022-05-14T05:24:00,pth,2.40
2022-05-14T05:26:00,pth,2.40
2022-05-14T05:27:00,pth,1.20
2022-05-14T05:28:00,pth,1.20
2022-05-14T05:30:00,pth,2.40
2022-05-14T05:32:00,pth,1.20
2022-05-14T05:34:00,pth,2.40
2022-05-14T05:35:00,pth,1.20
2022-05-14T05:37:00,pth,2.40
2022-05-14T05:39:00,pth,2.40
2022-05-14T05:40:00,pth,1.20
2022-05-14T05:42:00,pth,2.40
2022-05-14T05:44:00,pth,2.40
2022-05-14T05:46:00,pth,2.40
2022-05-14T05:48:00,pth,2.40
2022-05-14T05:50:00,pth,2.40
2022-05-14T05:51:00,pth,1.20
2022-05-14T05:53:00,pth,2.40
2022-05-14T05:55:00,pth,2.40
2022-05-14T05:57:00,pth,2.40
2022-05-14T05:59:00,pth,2.40
2022-05-14T06:01:00,pth,2.40
2022-05-14T06:02:00,pth,1.20
2022-05-14T06:04:00,pth,1.20
2022-05-14T06:05:00,pth,1.20
2022-05-14T06:07:00,pth,2.40
2022-05-14T06:09:00,pth,1.20
2022-05-14T06:11:00,pth,1.20
2022-05-14T06:12:00,pth,1.20
2022-05-14T06:14:00,pth,2.40
2022-05-14T06:16:00,pth,1.20
2022-05-14T06:18:00,pth,2.40
2022-05-14T06:20:00,pth,1.20
2022-05-14T06:21:00,pth,1.20
2022-05-14T06:23:00,pth,1.20
2022-05-14T06:25:00,pth,2.40
2022-05-14T06:26:00,pth,1.20
2022-05-14T06:28:00,pth,1.20
2022-05-14T06:30:00,pth,1.20
2022-05-14T06:32:00,pth,2.40
2022-05-14T06:34:00,pth,1.20
2022-05-14T06:36:00,pth,2.40
2022-05-14T06:37:00,pth,1.20
2022-05-14T06:39:00,pth,1.20
2022-05-14T06:40:00,pth,1.20
2022-05-14T06:42:00,pth,1.20
2022-05-14T06:43:00,pth,1.20
2022-05-14T06:45:00,pth,1.20
2022-05-14T06:46:00,pth,1.20
2022-05-14T06:48:00,pth,2.40
2022-05-14T06:50:00,pth,2.40
2022-05-14T06:52:00,pth,1.20
2022-05-14T06:53:00,pth,1.20
2022-05-14T06:54:00,pth,1.20
2022-05-14T06:56:00,pth,1.20
2022-05-14T06:58:00,pth,2.40
2022-05-14T07:00:00,pth,2.40
2022-05-14T07:01:00,pth,1.20
2022-05-14T07:02:00,pth,1.20
2022-05-14T07:04:00,pth,1.20
2022-05-14T07:06:00,pth,2.40
2022-05-14T07:08:00,pth,2.40
2022-05-14T07:09:00,pth,1.20
2022-05-14T07:11:00,pth,2.40
2022-05-14T07:13:00,pth,2.40
2022-05-14T07:16:00,pth,2.40
2022-05-14T07:18:00,pth,2.40
2022-05-14T07:20:00,pth,1.20
2022-05-14T07:22:00,pth,2.40
2022-05-14T07:24:00,pth,1.20
2022-05-14T07:26:00,pth,2.40
2022-05-14T07:29:00,pth,1.20
2022-05-14T07:31:00,pth,2.40
2022-05-14T07:33:00,pth,1.20
2022-05-14T07:35:00,pth,1.20
2022-05-14T07:37:00,pth,2.40
2022-05-14T07:40:00,pth,2.40
2022-05-14T07:43:00,pth,2.40
2022-05-14T07:46:00,pth,2.40
2022-05-14T07:47:00,pth,1.20
2022-05-14T07:49:00,pth,1.20
2022-05-14T07:51:00,pth,2.40
2022-05-14T07:52:00,pth,1.20
2022-05-14T07:54:00,pth,1.20
2022-05-14T07:55:00,pth,1.20
2022-05-14T07:57:00,pth,2.40
2022-05-14T07:59:00,pth,1.20
2022-05-14T08:00:00,pth,1.20
2022-05-14T08:01:00,pth,1.20
2022-05-14T08:03:00,pth,1.20
2022-05-14T08:04:00,pth,1.20
2022-05-14T08:06:00,pth,1.20
2022-05-14T08:07:00,pth,1.20
2022-05-14T08:09:00,pth,1.20
2022-05-14T08:11:00,pth,1.20
2022-05-14T08:13:00,pth,2.40
2022-05-14T08:15:00,pth,1.20
2022-05-14T08:17:00,pth,2.40
2022-05-14T08:20:00,pth,2.40
2022-05-14T08:23:00,pth,2.40
2022-05-14T08:25:00,pth,2.40
2022-05-14T08:27:00,pth,1.20
2022-05-14T08:29:00,pth,2.40
2022-05-14T08:31:00,pth,1.20
2022-05-14T08:32:00,pth,1.20
2022-05-14T08:33:00,pth,1.20
2022-05-14T08:35:00,pth,1.20
2022-05-14T08:37:00,pth,2.40
2022-05-14T08:39:00,pth,1.20
2022-05-14T08:41:00,pth,1.20
2022-05-14T08:43:00,pth,2.40
2022-05-14T08:46:00,pth,2.40
2022-05-14T08:47:00,pth,1.20
2022-05-14T08:48:00,pth,1.20
2022-05-14T08:50:00,pth,1.20
2022-05-14T08:51:00,pth,1.20
2022-05-14T08:53:00,pth,2.40
2022-05-14T08:54:00,pth,1.20
2022-05-14T08:56:00,pth,2.40
2022-05-14T08:59:00,pth,2.40
2022-05-14T09:01:00,pth,1.20
2022-05-14T09:03:00,pth,2.40
2022-05-14T09:04:00,pth,1.20
2022-05-14T09:06:00,pth,1.20
2022-05-14T09:08:00,pth,2.40
2022-05-14T09:10:00,pth,1.20
2022-05-14T09:11:00,pth,1.20
2022-05-14T09:14:00,pth,2.40
2022-05-14T09:16:00,pth,1.20
2022-05-14T09:17:00,pth,1.20
2022-05-14T09:19:00,pth,2.40
2022-05-14T09:21:00,pth,2.40
2022-05-14T09:22:00,pth,7.20
2022-05-14T09:24:00,pth,13.20
2022-05-14T09:26:00,pth,14.40
2022-05-14T09:28:00,pth,13.20
2022-05-14T09:30:00,pth,13.20
2022-05-14T09:32:00,pth,13.20
2022-05-14T09:34:00,pth,13.20
2022-05-14T09:35:00,pth,6.00
2022-05-14T09:37:00,pth,13.20
2022-05-14T09:39:00,pth,12.00
2022-05-14T09:41:00,pth,13.20
2022-05-14T09:43:00,pth,13.20
2022-05-14T09:45:00,pth,14.40
2022-05-14T09:46:00,pth,7.20
2022-05-14T09:48:00,pth,15.60
2022-05-14T09:49:00,pth,8.40
2022-05-14T09:51:00,pth,15.60
2022-05-14T09:52:00,pth,7.20
2022-05-14T09:54:00,pth,14.40
2022-05-14T09:56:00,pth,13.20
2022-05-14T09:58:00,pth,3.60
2022-05-14T10:00:00,pth,3.60
2022-05-14T10:02:00,pth,2.40
2022-05-14T10:04:00,pth,2.40
2022-05-14T10:06:00,pth,1.20
2022-05-14T10:08:00,pth,3.60
2022-05-14T10:10:00,pth,1.20
2022-05-14T10:11:00,pth,1.20
2022-05-14T10:12:00,pth,1.20
2022-05-14T10:14:00,pth,8.40
2022-05-14T10:16:00,pth,12.00
2022-05-14T10:18:00,pth,13.20
2022-05-14T10:20:00,pth,13.20
2022-05-14T10:22:00,pth,12.00
2022-05-14T10:24:00,pth,13.20
2022-05-14T10:26:00,pth,12.00
2022-05-14T10:27:00,pth,7.20
2022-05-14T10:29:00,pth,13.20
2022-05-14T10:30:00,pth,6.00
2022-05-14T10:31:00,pth,7.20
2022-05-14T10:33:00,pth,13.20
2022-05-14T10:35:00,pth,13.20
2022-05-14T10:37:00,pth,13.20
2022-05-14T10:39:00,pth,13.20
2022-05-14T10:40:00,pth,7.20
2022-05-14T10:41:00,pth,7.20
2022-05-14T10:43:00,pth,13.20
2022-05-14T10:44:00,pth,7.20
2022-05-14T10:46:00,pth,13.20
2022-05-14T10:48:00,pth,14.40
2022-05-14T10:49:00,pth,7.20
2022-05-14T10:51:00,pth,6.00
2022-05-14T10:53:00,pth,10.80
2022-05-14T10:55:00,pth,12.00
2022-05-14T10:56:00,pth,2.40
2022-05-14T10:58:00,pth,8.40
2022-05-14T11:00:00,pth,12.00
2022-05-14T11:02:00,pth,3.60
2022-05-14T11:03:00,pth,7.20
2022-05-14T11:05:00,pth,10.80
2022-05-14T11:07:00,pth,2.40
2022-05-14T11:08:00,pth,1.20
2022-05-14T11:10:00,pth,2.40
2022-05-14T11:11:00,pth,1.20
2022-05-14T11:12:00,pth,1.20
2022-05-14T11:14:00,pth,2.40
2022-05-14T11:15:00,pth,1.20
2022-05-14T11:17:00,pth,3.60
2022-05-14T11:18:00,pth,1.20
2022-05-14T11:20:00,pth,13.20
2022-05-14T11:22:00,pth,13.20
2022-05-14T11:24:00,pth,14.40
2022-05-14T11:26:00,pth,13.20
2022-05-14T11:28:00,pth,13.20
2022-05-14T11:29:00,pth,7.20
2022-05-14T11:31:00,pth,13.20
2022-05-14T11:32:00,pth,6.00
2022-05-14T11:34:00,pth,13.20
2022-05-14T11:36:00,pth,13.20
2022-05-14T11:38:00,pth,13.20
2022-05-14T11:39:00,pth,6.00
2022-05-14T11:41:00,pth,13.20
2022-05-14T11:43:00,pth,13.20
2022-05-14T11:45:00,pth,12.00
2022-05-14T11:47:00,pth,13.20
2022-05-14T11:49:00,pth,12.00
2022-05-14T11:50:00,pth,7.20
2022-05-14T11:51:00,pth,6.00
2022-05-14T11:53:00,pth,13.20
2022-05-14T11:55:00,pth,13.20
2022-05-14T11:57:00,pth,13.20
2022-05-14T11:58:00,pth,6.00
2022-05-14T12:00:00,pth,13.20
2022-05-14T12:02:00,pth,9.60
2022-05-14T12:03:00,pth,1.20
2022-05-14T12:05:00,pth,13.20
2022-05-14T12:07:00,pth,12.00
2022-05-14T12:09:00,pth,2.40
2022-05-14T12:10:00,pth,1.20
2022-05-14T12:11:00,pth,1.20
2022-05-14T12:13:00,pth,13.20
2022-05-14T12:14:00,pth,6.00
2022-05-14T12:15:00,pth,7.20
2022-05-14T12:17:00,pth,4.80
2022-05-14T12:19:00,pth,1.20
2022-05-14T12:20:00,pth,1.20
2022-05-14T12:22:00,pth,2.40
2022-05-14T12:24:00,pth,2.40
2022-05-14T12:26:00,pth,2.40
2022-05-14T12:29:00,pth,2.40
2022-05-14T12:31:00,pth,1.20
2022-05-14T12:33:00,pth,1.20
2022-05-14T12:35:00,pth,2.40
2022-05-14T12:37:00,pth,1.20
2022-05-14T12:38:00,pth,1.20
2022-05-14T12:40:00,pth,1.20
2022-05-14T12:42:00,pth,1.20
2022-05-14T12:43:00,pth,1.20
2022-05-14T12:45:00,pth,2.40
2022-05-14T12:47:00,pth,1.20
2022-05-14T12:49:00,pth,2.40
2022-05-14T12:51:00,pth,2.40
2022-05-14T12:53:00,pth,1.20
2022-05-14T12:54:00,pth,1.20
2022-05-14T12:55:00,pth,1.20
2022-05-14T12:56:00,pth,1.20
2022-05-14T12:58:00,pth,2.40
2022-05-14T13:00:00,pth,2.40
2022-05-14T13:01:00,pth,1.20
2022-05-14T13:03:00,pth,2.40
2022-05-14T13:05:00,pth,1.20
2022-05-14T13:07:00,pth,2.40
2022-05-14T13:09:00,pth,2.40
2022-05-14T13:11:00,pth,1.20
2022-05-14T13:13:00,pth,2.40
2022-05-14T13:15:00,pth,1.20
2022-05-14T13:17:00,pth,2.40
2022-05-14T13:18:00,pth,1.20
2022-05-14T13:20:00,pth,1.20
2022-05-14T13:21:00,pth,1.20
2022-05-14T13:23:00,pth,1.20
2022-05-14T13:24:00,pth,1.20
2022-05-14T13:25:00,pth,1.20
2022-05-14T13:27:00,pth,1.20
2022-05-14T13:29:00,pth,2.40
2022-05-14T13:30:00,pth,1.20
2022-05-14T13:32:00,pth,1.20
2022-05-14T13:34:00,pth,1.20
2022-05-14T13:36:00,pth,2.40
2022-05-14T13:38:00,pth,2.40
2022-05-14T13:40:00,pth,1.20
2022-05-14T13:41:00,pth,1.20
2022-05-14T13:43:00,pth,2.40
2022-05-14T13:44:00,pth,1.20
2022-05-14T13:47:00,pth,2.40
2022-05-14T13:49:00,pth,1.20
2022-05-14T13:51:00,pth,1.20
2022-05-14T13:53:00,pth,1.20
2022-05-14T13:55:00,pth,1.20
2022-05-14T13:57:00,pth,2.40
2022-05-14T13:59:00,pth,1.20
2022-05-14T14:01:00,pth,1.20
2022-05-14T14:03:00,pth,1.20
2022-05-14T14:04:00,pth,1.20
2022-05-14T14:06:00,pth,1.20
2022-05-14T14:08:00,pth,1.20
2022-05-14T14:10:00,pth,1.20
2022-05-14T14:12:00,pth,2.40
2022-05-14T14:14:00,pth,1.20
2022-05-14T14:16:00,pth,1.20
2022-05-14T14:18:00,pth,1.20
2022-05-14T14:19:00,pth,1.20
2022-05-14T14:21:00,pth,1.20
2022-05-14T14:22:00,pth,1.20
2022-05-14T14:24:00,pth,1.20
2022-05-14T14:26:00,pth,2.40
2022-05-14T14:28:00,pth,2.40
2022-05-14T14:29:00,pth,1.20
2022-05-14T14:31:00,pth,1.20
2022-05-14T14:32:00,pth,1.20
2022-05-14T14:34:00,pth,2.40
2022-05-14T14:36:00,pth,1.20
2022-05-14T14:37:00,pth,1.20
2022-05-14T14:38:00,pth,1.20
2022-05-14T14:40:00,pth,1.20
2022-05-14T14:43:00,pth,2.40
2022-05-14T14:45:00,pth,1.20
2022-05-14T14:47:00,pth,1.20
2022-05-14T14:49:00,pth,2.40
2022-05-14T14:51:00,pth,1.20
2022-05-14T14:53:00,pth,1.20
2022-05-14T14:55:00,pth,2.40
2022-05-14T14:57:00,pth,1.20
2022-05-14T14:59:00,pth,2.40
2022-05-14T15:01:00,pth,1.20
2022-05-14T15:03:00,pth,2.40
2022-05-14T15:05:00,pth,1.20
2022-05-14T15:07:00,pth,2.40
2022-05-14T15:10:00,pth,2.40
2022-05-14T15:12:00,pth,1.20
2022-05-14T15:13:00,pth,1.20
2022-05-14T15:15:00,pth,1.20
2022-05-14T15:16:00,pth,1.20
2022-05-14T15:18:00,pth,2.40
2022-05-14T15:20:00,pth,1.20
2022-05-14T15:22:00,pth,2.40
2022-05-14T15:24:00,pth,1.20
2022-05-14T15:26:00,pth,2.40
2022-05-14T15:28:00,pth,1.20
2022-05-14T15:29:00,pth,1.20
2022-05-14T15:31:00,pth,2.40
2022-05-14T15:33:00,pth,1.20
2022-05-14T15:35:00,pth,2.40
2022-05-14T15:37:00,pth,1.20
2022-05-14T15:38:00,pth,1.20
2022-05-14T15:40:00,pth,1.20
2022-05-14T15:41:00,pth,1.20
2022-05-14T15:43:00,pth,1.20
2022-05-14T15:44:00,pth,1.20
2022-05-14T15:46:00,pth,2.40
2022-05-14T15:48:00,pth,1.20
2022-05-14T15:50:00,pth,1.20
2022-05-14T15:52:00,pth,2.40
2022-05-14T15:53:00,pth,1.20
2022-05-14T15:55:00,pth,1.20
2022-05-14T15:57:00,pth,2.40
2022-05-14T15:58:00,pth,1.20
2022-05-14T16:00:00,pth,2.40
2022-05-14T16:02:00,pth,1.20
2022-05-14T16:04:00,pth,2.40
2022-05-14T16:06:00,pth,1.20
2022-05-14T16:08:00,pth,2.40
2022-05-14T16:09:00,pth,1.20
2022-05-14T16:11:00,pth,1.20
2022-05-14T16:13:00,pth,1.20
2022-05-14T16:15:00,pth,2.40
2022-05-14T16:17:00,pth,3.60
2022-05-14T16:19:00,pth,1.20
2022-05-14T16:20:00,pth,1.20
2022-05-14T16:22:00,pth,1.20
2022-05-14T16:23:00,pth,1.20
2022-05-14T16:25:00,pth,1.20
2022-05-14T16:27:00,pth,2.40
2022-05-14T16:29:00,pth,2.40
2022-05-14T16:31:00,pth,2.40
2022-05-14T16:34:00,pth,2.40
2022-05-14T16:36:00,pth,2.40
2022-05-14T16:38:00,pth,1.20
2022-05-14T16:40:00,pth,2.40
2022-05-14T16:42:00,pth,2.40
2022-05-14T16:43:00,pth,1.20
2022-05-14T16:45:00,pth,1.20
2022-05-14T16:47:00,pth,2.40
2022-05-14T16:49:00,pth,1.20
2022-05-14T16:51:00,pth,2.40
2022-05-14T16:52:00,pth,1.20
2022-05-14T16:54:00,pth,1.20
2022-05-14T16:56:00,pth,2.40
2022-05-14T16:57:00,pth,1.20
2022-05-14T16:59:00,pth,2.40
2022-05-14T17:00:00,pth,1.20
2022-05-14T17:02:00,pth,2.40
2022-05-14T17:05:00,pth,2.40
2022-05-14T17:07:00,pth,2.40
2022-05-14T17:08:00,pth,1.20
2022-05-14T17:10:00,pth,2.40
2022-05-14T17:11:00,pth,1.20
2022-05-14T17:13:00,pth,2.40
2022-05-14T17:14:00,pth,1.20
2022-05-14T17:16:00,pth,2.40
2022-05-14T17:18:00,pth,2.40
2022-05-14T17:19:00,pth,1.20
2022-05-14T17:21:00,pth,3.60
2022-05-14T17:22:00,pth,1.20
2022-05-14T17:24:00,pth,3.60
2022-05-14T17:26:00,pth,3.60
2022-05-14T17:28:00,pth,4.80
2022-05-14T17:30:00,pth,3.60
2022-05-14T17:32:00,pth,3.60
2022-05-14T17:33:00,pth,2.40
2022-05-14T17:34:00,pth,1.20
2022-05-14T17:36:00,pth,1.20
2022-05-14T17:38:00,pth,2.40
2022-05-14T17:40:00,pth,2.40
2022-05-14T17:42:00,pth,2.40
2022-05-14T17:44:00,pth,6.00
2022-05-14T17:45:00,pth,6.00
2022-05-14T17:47:00,pth,14.40
2022-05-14T17:48:00,pth,6.00
2022-05-14T17:49:00,pth,7.20
2022-05-14T17:51:00,pth,13.20
2022-05-14T17:53:00,pth,13.20
2022-05-14T17:55:00,pth,13.20
2022-05-14T17:57:00,pth,13.20
2022-05-14T17:59:00,pth,13.20
2022-05-14T18:01:00,pth,13.20
2022-05-14T18:03:00,pth,13.20
2022-05-14T18:04:00,pth,7.20
2022-05-14T18:06:00,pth,9.60
2022-05-14T18:08:00,pth,13.20
2022-05-14T18:10:00,pth,8.40
2022-05-14T18:12:00,pth,13.20
2022-05-14T18:14:00,pth,8.40
2022-05-14T18:16:00,pth,8.40
2022-05-14T18:18:00,pth,12.00
2022-05-14T18:20:00,pth,8.40
2022-05-14T18:22:00,pth,7.20
2022-05-14T18:24:00,pth,9.60
2022-05-14T18:26:00,pth,9.60
2022-05-14T18:28:00,pth,7.20
2022-05-14T18:29:00,pth,2.40
2022-05-14T18:31:00,pth,2.40
2022-05-14T18:33:00,pth,2.40
2022-05-14T18:35:00,pth,2.40
2022-05-14T18:36:00,pth,1.20
2022-05-14T18:38:00,pth,2.40
2022-05-14T18:40:00,pth,2.40
2022-05-14T18:41:00,pth,1.20
2022-05-14T18:43:00,pth,1.20
2022-05-14T18:44:00,pth,1.20
2022-05-14T18:45:00,pth,1.20
2022-05-14T18:47:00,pth,2.40
2022-05-14T18:49:00,pth,2.40
2022-05-14T18:50:00,pth,1.20
2022-05-14T18:52:00,pth,2.40
2022-05-14T18:53:00,pth,1.20
2022-05-14T18:54:00,pth,1.20
2022-05-14T18:56:00,pth,1.20
2022-05-14T18:58:00,pth,2.40
2022-05-14T19:00:00,pth,1.20
2022-05-14T19:02:00,pth,2.40
2022-05-14T19:03:00,pth,1.20
2022-05-14T19:05:00,pth,1.20
2022-05-14T19:06:00,pth,1.20
2022-05-14T19:08:00,pth,2.40
2022-05-14T19:11:00,pth,2.40
2022-05-14T19:13:00,pth,1.20
2022-05-14T19:14:00,pth,1.20
2022-05-14T19:16:00,pth,2.40
2022-05-14T19:17:00,pth,1.20
2022-05-14T19:19:00,pth,2.40
2022-05-14T19:21:00,pth,2.40
2022-05-14T19:24:00,pth,2.40
2022-05-14T19:26:00,pth,2.40
2022-05-14T19:27:00,pth,1.20
2022-05-14T19:29:00,pth,2.40
2022-05-14T19:31:00,pth,2.40
2022-05-14T19:33:00,pth,2.40
2022-05-14T19:35:00,pth,1.20
2022-05-14T19:37:00,pth,2.40
2022-05-14T19:40:00,pth,2.40
2022-05-14T19:41:00,pth,1.20
2022-05-14T19:43:00,pth,1.20
2022-05-14T19:45:00,pth,2.40
2022-05-14T19:47:00,pth,2.40
2022-05-14T19:49:00,pth,1.20
2022-05-14T19:51:00,pth,2.40
2022-05-14T19:53:00,pth,1.20
2022-05-14T19:54:00,pth,1.20
2022-05-14T19:56:00,pth,2.40
2022-05-14T19:58:00,pth,2.40
2022-05-14T20:00:00,pth,2.40
2022-05-14T20:02:00,pth,3.60
2022-05-14T20:03:00,pth,1.20
2022-05-14T20:05:00,pth,3.60
2022-05-14T20:07:00,pth,3.60
2022-05-14T20:09:00,pth,3.60
2022-05-14T20:10:00,pth,2.40
2022-05-14T20:12:00,pth,4.80
2022-05-14T20:14:00,pth,4.80
2022-05-14T20:16:00,pth,4.80
2022-05-14T20:18:00,pth,4.80
2022-05-14T20:20:00,pth,4.80
2022-05-14T20:21:00,pth,2.40
2022-05-14T20:23:00,pth,4.80
2022-05-14T20:24:00,pth,2.40
2022-05-14T20:26:00,pth,3.60
2022-05-14T20:27:00,pth,1.20
2022-05-14T20:29:00,pth,3.60
2022-05-14T20:31:00,pth,3.60
2022-05-14T20:33:00,pth,3.60
2022-05-14T20:34:00,pth,1.20
2022-05-14T20:36:00,pth,3.60
2022-05-14T20:37:00,pth,2.40
2022-05-14T20:39:00,pth,6.00
2022-05-14T20:41:00,pth,3.60
2022-05-14T20:42:00,pth,3.60
2022-05-14T20:44:00,pth,4.80
2022-05-14T20:45:00,pth,3.60
2022-05-14T20:47:00,pth,4.80
2022-05-14T20:48:00,pth,2.40
2022-05-14T20:50:00,pth,3.60
2022-05-14T20:52:00,pth,4.80
2022-05-14T20:54:00,pth,4.80
2022-05-14T20:55:00,pth,1.20
2022-05-14T20:57:00,pth,4.80
2022-05-14T20:58:00,pth,2.40
2022-05-14T21:00:00,pth,3.60
2022-05-14T21:02:00,pth,2.40
2022-05-14T21:04:00,pth,3.60
2022-05-14T21:06:00,pth,12.00
2022-05-14T21:08:00,pth,13.20
2022-05-14T21:10:00,pth,10.80
2022-05-14T21:12:00,pth,12.00
2022-05-14T21:13:00,pth,7.20
2022-05-14T21:15:00,pth,10.80
2022-05-14T21:17:00,pth,10.80
2022-05-14T21:19:00,pth,10.80
2022-05-14T21:20:00,pth,4.80
2022-05-14T21:22:00,pth,9.60
2022-05-14T21:24:00,pth,9.60
2022-05-14T21:25:00,pth,7.20
2022-05-14T21:27:00,pth,9.60
2022-05-14T21:29:00,pth,9.60
2022-05-14T21:31:00,pth,9.60
2022-05-14T21:33:00,pth,9.60
2022-05-14T21:35:00,pth,8.40
2022-05-14T21:37:00,pth,9.60
2022-05-14T21:39:00,pth,10.80
2022-05-14T21:41:00,pth,9.60
2022-05-14T21:43:00,pth,10.80
2022-05-14T21:45:00,pth,9.60
2022-05-14T21:47:00,pth,8.40
2022-05-14T21:48:00,pth,4.80
2022-05-14T21:50:00,pth,9.60
2022-05-14T21:51:00,pth,3.60
2022-05-14T21:53:00,pth,9.60
2022-05-14T21:55:00,pth,9.60
2022-05-14T21:57:00,pth,8.40
2022-05-14T21:59:00,pth,8.40
2022-05-14T22:00:00,pth,6.00
2022-05-14T22:02:00,pth,7.20
2022-05-14T22:04:00,pth,3.60
2022-05-14T22:06:00,pth,3.60
2022-05-14T22:08:00,pth,3.60
2022-05-14T22:09:00,pth,1.20
2022-05-14T22:11:00,pth,3.60
2022-05-14T22:12:00,pth,2.40
2022-05-14T22:14:00,pth,3.60
2022-05-14T22:16:00,pth,2.40
2022-05-14T22:17:00,pth,2.40
2022-05-14T22:18:00,pth,1.20
2022-05-14T22:20:00,pth,3.60
2022-05-14T22:22:00,pth,2.40
2022-05-14T22:24:00,pth,3.60
2022-05-14T22:26:00,pth,3.60
2022-05-14T22:28:00,pth,8.40
2022-05-14T22:30:00,pth,14.40
2022-05-14T22:32:00,pth,14.40
2022-05-14T22:34:00,pth,15.60
2022-05-14T22:36:00,pth,13.20
2022-05-14T22:37:00,pth,7.20
2022-05-14T22:39:00,pth,14.40
2022-05-14T22:40:00,pth,7.20
2022-05-14T22:42:00,pth,14.40
2022-05-14T22:44:00,pth,14.40
2022-05-14T22:46:00,pth,14.40
2022-05-14T22:48:00,pth,14.40
2022-05-14T22:49:00,pth,7.20
2022-05-14T22:51:00,pth,14.40
2022-05-14T22:52:00,pth,7.20
2022-05-14T22:54:00,pth,13.20
2022-05-14T22:56:00,pth,14.40
2022-05-14T22:58:00,pth,13.20
2022-05-14T22:59:00,pth,7.20
2022-05-14T23:01:00,pth,13.20
2022-05-14T23:03:00,pth,9.60
2022-05-14T23:05:00,pth,12.00
2022-05-14T23:06:00,pth,7.20
2022-05-14T23:08:00,pth,7.20
2022-05-14T23:10:00,pth,14.40
2022-05-14T23:12:00,pth,8.40
2022-05-14T23:14:00,pth,10.80
2022-05-14T23:16:00,pth,7.20
2022-05-14T23:18:00,pth,12.00
2022-05-14T23:19:00,pth,4.80
2022-05-14T23:20:00,pth,1.20
2022-05-14T23:22:00,pth,13.20
2022-05-14T23:24:00,pth,4.80
2022-05-14T23:25:00,pth,6.00
2022-05-14T23:26:00,pth,7.20
2022-05-14T23:28:00,pth,3.60
2022-05-14T23:30:00,pth,2.40
2022-05-14T23:32:00,pth,2.40
2022-05-14T23:34:00,pth,3.60
2022-05-14T23:36:00,pth,2.40
2022-05-14T23:37:00,pth,1.20
2022-05-14T23:39:00,pth,3.60
2022-05-14T23:40:00,pth,1.20
2022-05-14T23:41:00,pth,1.20
2022-05-14T23:42:00,pth,1.20
2022-05-14T23:44:00,pth,2.40
2022-05-14T23:46:00,pth,3.60
2022-05-14T23:48:00,pth,2.40
2022-05-14T23:50:00,pth,2.40
